Location: Bad Dürkheim
(49.4618°N, 8.1724°E)
Time: 04:35:00
(UTC+00:00)

Cosmos 1758 - Pass Details

Date: 14 June 2025
Orbit: 489 x 513 km, 82.5° (Epoch: 12 July)

Event Time Altitude Azimuth Distance (km) Brightness Sun altitude
Rises 21:17:08 0° 342° (NNW) 2,606 8.6 -11.6°
Reaches altitude 10° 21:19:23 10° 334° (NNW) 1,713 7.4 -11.8°
Maximum altitude 21:22:49 35° 268° (W) 816 4.4 -12.1°
Drops below altitude 10° 21:26:12 10° 201° (SSW) 1,686 5.4 -12.4°
Enters shadow 21:26:20 - 200° (SSW) 1,736 5.5 -12.4°
